This is the latest recevied weather packets stored in our database for station/object KC1HBM. If no packets are shown the sender has not sent any weather packets the latest 10 day(s).
| Time | Temp. | Humidity | Pressure | Rain* | Wind** | Luminosity | Snow |
|---|---|---|---|---|---|---|---|
| 1777306042 | 17.22° C | 46% | 1023.2 hPa | 0 mm | - | 708 W/m² | - |
| 1777305739 | 17.78° C | 46% | 1023.1 hPa | 0 mm | - | 704 W/m² | - |
| 1777305434 | 17.78° C | 45% | 1023.3 hPa | 0 mm | - | 727 W/m² | - |
| 1777305129 | 17.22° C | 44% | 1023.1 hPa | 0 mm | - | 721 W/m² | - |
| 1777304824 | 17.78° C | 43% | 1023.2 hPa | 0 mm | - | 719 W/m² | - |
| 1777304521 | 17.78° C | 43% | 1023.1 hPa | 0 mm | - | 664 W/m² | - |
| 1777304219 | 17.78° C | 44% | 1023.3 hPa | 0 mm | - | 645 W/m² | - |
| 1777303915 | 17.78° C | 45% | 1023.3 hPa | 0 mm | - | 722 W/m² | - |
| 1777303613 | 17.78° C | 46% | 1023.4 hPa | 0 mm | - | 723 W/m² | - |
| 1777303310 | 17.22° C | 45% | 1023.5 hPa | 0 mm | - | 715 W/m² | - |
| 1777303007 | 16.67° C | 47% | 1023.2 hPa | 0 mm | - | 701 W/m² | - |
| 1777302704 | 16.67° C | 47% | 1023.3 hPa | 0 mm | - | 670 W/m² | - |
| 1777302403 | 17.78° C | 46% | 1023.3 hPa | 0 mm | - | 633 W/m² | - |
| 1777302100 | 18.33° C | 46% | 1023.5 hPa | 0 mm | - | 649 W/m² | - |
| 1777301798 | 18.89° C | 45% | 1023.4 hPa | 0 mm | - | 606 W/m² | - |
| 1777301495 | 17.78° C | 46% | 1023.5 hPa | 0 mm | - | 620 W/m² | - |
| 1777301192 | 18.33° C | 48% | 1023.5 hPa | 0 mm | - | 573 W/m² | - |
| 1777300888 | 18.89° C | 46% | 1023.3 hPa | 0 mm | - | 521 W/m² | - |
| 1777300586 | 17.78° C | 48% | 1023.4 hPa | 0 mm | - | 532 W/m² | - |
| 1777300284 | 18.89° C | 45% | 1023.4 hPa | 0 mm | - | 554 W/m² | - |
| 1777299980 | 18.89° C | 46% | 1023.2 hPa | 0 mm | - | 561 W/m² | - |
| 1777299677 | 18.33° C | 48% | 1023.4 hPa | 0 mm | - | 556 W/m² | - |
| 1777299375 | 18.89° C | 49% | 1023 hPa | 0 mm | - | 545 W/m² | - |
| 1777299073 | 19.44° C | 50% | 1023.4 hPa | 0 mm | - | 540 W/m² | - |
| 1777298769 | 19.44° C | 45% | 1023.3 hPa | 0 mm | - | 523 W/m² | - |
* Rain latest hour (hover to see other rain measurements)
** Current wind speed in m/s (hover to see current wind gust speed)